This demonstration page uses our WeatherBlox Daily Observations layout. Learn more.

Left ArrowRight Arrow

Hourly Observations for July 14, 2016

Temp ( °F °C ) Dew Point ( °F °C ) Humidity (%) Winds ( mph kmh ) Pressure ( in mb ) Visibility ( mi km ) Precip ( " mm )
12:15 am 00:15 Clear 64 18 60 15.3 84 84 E 3 6 29.97 1015 10 16 N/A
12:35 am 00:35 Clear 64 17.9 59 15.2 84 84 N N/A 29.97 1015 10 16 N/A
12:55 am 00:55 Clear 62 16.9 58 14.5 86 86 N N/A 29.97 1015 10 16 N/A
1:15 am 01:15 Clear 63 17 60 15.3 90 90 N N/A 29.97 1015 10 16 N/A
1:35 am 01:35 Clear 62 16.8 59 15.2 90 90 N N/A 29.97 1015 10 16 N/A
1:55 am 01:55 Clear 62 16.5 58 14.7 89 89 SW 6 9 30.00 1016 10 16 N/A
2:15 am 02:15 Clear 62 16.6 59 14.9 90 90 SW 3 6 30.00 1016 10 16 N/A
2:35 am 02:35 Clear 62 16.5 59 14.9 90 90 N N/A 30.00 1016 10 16 N/A
2:55 am 02:55 Clear 61 16.2 59 15.1 93 93 NW 3 6 30.00 1016 10 16 N/A
3:15 am 03:15 Partly Cloudy 62 16.6 60 15.5 93 93 N 5 7 30.00 1016 10 16 N/A
3:35 am 03:35 Partly Cloudy 62 16.7 60 15.5 93 93 N 7 11 30.00 1016 7 11 N/A
3:55 am 03:55 Clear 63 17 60 15.6 92 92 N N/A 29.97 1015 10 16 N/A
4:15 am 04:15 Partly Cloudy 63 17.1 61 15.9 93 93 WSW 5 7 29.97 1015 10 16 N/A
4:35 am 04:35 Partly Cloudy with Nearby Thunderstorms 63 17.4 61 16.2 93 93 N N/A 30.00 1016 7 11 N/A
4:55 am 04:55 Partly Cloudy with Nearby Thunderstorms 64 17.6 61 16.2 92 92 NNW 5 7 30.00 1016 10 16 N/A
5:15 am 05:15 Partly Cloudy 64 17.5 61 16.3 93 93 NNW 6 9 30.00 1016 7 11 N/A
5:35 am 05:35 Partly Cloudy 64 17.5 61 16.2 92 92 NW 5 7 30.00 1016 7 11 N/A
5:55 am 05:55 Clear 63 17.3 61 16.1 93 93 NNE 7 11 30.00 1016 10 16 N/A
6:15 am 06:15 Clear 63 17.1 61 16 93 93 N N/A 30.06 1018 10 16 N/A
6:35 am 06:35 Sunny 63 17 60 15.7 92 92 N N/A 30.06 1018 10 16 N/A
6:55 am 06:55 Sunny 63 17 60 15.7 92 92 N N/A 30.06 1018 10 16 N/A
7:15 am 07:15 Sunny 63 17.4 61 16.3 93 93 N N/A 30.00 1016 7 11 N/A
7:35 am 07:35 Sunny 65 18.1 62 16.8 92 92 N N/A 30.00 1016 7 11 N/A
7:55 am 07:55 Partly Cloudy 66 18.7 62 16.7 88 88 N N/A 29.97 1015 10 16 N/A
8:15 am 08:15 Mostly Cloudy 66 18.8 63 17 89 89 N 3 6 30.00 1016 10 16 N/A
8:35 am 08:35 Mostly Cloudy with Light Rain 66 19.1 63 17.4 90 90 N N/A 30.00 1016 10 16 N/A
8:55 am 08:55 Partly Cloudy 70 20.9 64 18 84 84 N 6 9 30.00 1016 10 16 N/A
9:15 am 09:15 Partly Cloudy 71 21.7 64 17.5 77 77 NE 5 7 30.00 1016 10 16 N/A
9:35 am 09:35 Partly Cloudy 72 22 63 17.4 75 75 NNE 10 17 30.00 1016 10 16 N/A
9:55 am 09:55 Partly Cloudy 73 22.8 63 17.2 71 71 NNE 9 15 30.00 1016 10 16 N/A
10:15 am 10:15 Sunny 76 24.5 63 17 63 63 NNE 10 17 29.94 1014 10 16 N/A
10:35 am 10:35 Sunny 76 24.6 61 16.1 59 59 NE 9 15 29.97 1015 10 16 N/A
10:55 am 10:55 Partly Cloudy 77 25 59 15.2 55 55 NE 10 17 29.94 1014 10 16 N/A
11:15 am 11:15 Partly Cloudy 77 25.1 61 15.9 57 57 NNE 14 22 29.94 1014 10 16 N/A
11:35 am 11:35 Partly Cloudy 79 26.3 58 14.2 47 47 NNE 14 22 29.94 1014 10 16 N/A
11:55 am 11:55 Partly Cloudy 81 27.4 60 15.4 48 48 NNE 15 24 29.94 1014 10 16 N/A
12:15 pm 12:15 Mostly Cloudy 79 26.3 58 14.6 49 49 NE 9 15 29.97 1015 10 16 N/A
12:35 pm 12:35 Mostly Cloudy 81 27 58 14.7 47 47 ENE 6 9 29.97 1015 10 16 N/A
12:55 pm 12:55 Partly Cloudy 83 28.6 57 14 41 41 NE 8 13 29.94 1014 10 16 N/A
1:15 pm 13:15 Sunny 83 28.4 57 14 41 41 NNE 7 11 29.94 1014 10 16 N/A
1:35 pm 13:35 Sunny 84 29 58 14.4 41 41 NNE 9 15 29.94 1014 10 16 N/A
1:55 pm 13:55 Sunny 85 29.6 56 13.6 37 37 ENE 7 11 29.94 1014 10 16 N/A
2:15 pm 14:15 Sunny 85 29.5 56 13.3 37 37 E 6 9 29.94 1014 10 16 N/A
2:35 pm 14:35 Sunny 86 29.8 55 13 36 36 ENE 8 13 29.94 1014 10 16 N/A
2:55 pm 14:55 Sunny 85 29.7 54 12.4 34 34 ENE 7 11 29.94 1014 10 16 N/A
3:15 pm 15:15 Sunny 86 29.9 53 11.4 32 32 N N/A 29.91 1013 10 16 N/A
3:35 pm 15:35 Sunny 86 30.1 53 11.5 32 32 E 6 9 29.91 1013 10 16 N/A
3:55 pm 15:55 Sunny 87 30.5 53 11.6 31 31 E 7 11 29.91 1013 10 16 N/A
4:15 pm 16:15 Partly Cloudy 85 29.7 52 10.9 31 31 N N/A 29.91 1013 10 16 N/A
4:35 pm 16:35 Sunny 86 29.9 54 12 33 33 E 10 17 29.91 1013 10 16 N/A
4:55 pm 16:55 Sunny 86 30.2 53 11.7 32 32 E 9 15 29.91 1013 10 16 N/A
5:15 pm 17:15 Sunny 85 29.3 53 11.5 33 33 SSE 8 13 29.91 1013 10 16 N/A
5:35 pm 17:35 Partly Cloudy 87 30.4 53 11.9 32 32 SE 8 13 29.91 1013 10 16 N/A
5:55 pm 17:55 Mostly Cloudy 86 30.1 53 11.5 32 32 ESE 7 11 29.91 1013 10 16 N/A
6:15 pm 18:15 Partly Cloudy 86 29.9 53 11.6 32 32 E 6 9 29.91 1013 10 16 N/A
6:35 pm 18:35 Sunny 85 29.7 52 11.2 32 32 N N/A 29.91 1013 10 16 N/A
6:55 pm 18:55 Sunny 85 29.6 54 12.1 34 34 E 7 11 29.91 1013 10 16 N/A
7:15 pm 19:15 Sunny 85 29.3 52 11.2 33 33 ESE 7 11 29.91 1013 10 16 N/A
7:35 pm 19:35 Sunny 84 29.1 53 11.7 34 34 SE 5 7 29.91 1013 10 16 N/A
7:55 pm 19:55 Sunny 83 28.4 57 14.1 42 42 SE 3 6 29.91 1013 10 16 N/A
8:15 pm 20:15 Sunny 82 27.6 60 15.4 47 47 SSE 3 6 29.91 1013 10 16 N/A
8:35 pm 20:35 Sunny 80 26.4 60 15.6 52 52 SSE 3 6 29.94 1014 10 16 N/A
8:55 pm 20:55 Sunny 77 25 61 16.3 59 59 N N/A 29.94 1014 10 16 N/A
9:15 pm 21:15 Clear 75 24 61 16.1 61 61 SSE 5 7 29.94 1014 10 16 N/A
9:35 pm 21:35 Clear 73 22.9 62 16.6 68 68 SSE 5 7 29.97 1015 10 16 N/A
9:55 pm 21:55 Clear 71 21.6 62 16.8 74 74 SE 3 6 29.97 1015 10 16 N/A
10:15 pm 22:15 Clear 71 21.5 63 17.1 76 76 SSE 3 6 29.97 1015 10 16 N/A
10:35 pm 22:35 Clear 70 21.1 62 16.5 75 75 SE 5 7 29.97 1015 10 16 N/A
10:55 pm 22:55 Clear 68 20 62 16.7 81 81 E 5 7 30.03 1017 10 16 N/A
11:15 pm 23:15 Clear 66 18.8 61 16.2 85 85 ESE 3 6 30.03 1017 10 16 N/A
11:35 pm 23:35 Clear 67 19.4 62 16.7 84 84 N N/A 30.03 1017 10 16 N/A
11:55 pm 23:55 Clear 66 18.8 61 16.2 85 85 ESE 3 6 30.03 1017 10 16 N/A

Powered by AerisWeather